Location: ??????????
(54.8537°N, 38.8755°E)
Time: 15:22:25
(UTC+00:00)

S-56A Canister/Altair - Pass Details

Date: 21 September 2024
Orbit: 636 x 2487 km, 38.9° (Epoch: 09 October)

Event Time Altitude Azimuth Distance (km) Brightness Sun altitude
Rises 18:16:27 0° 251° (WSW) 3,462 11.3 -23.7°
Reaches altitude 10° 18:19:48 10° 229° (SW) 2,780 10.5 -24.0°
Maximum altitude 18:23:39 16° 194° (SSW) 2,673 10.0 -24.5°
Enters shadow 18:23:45 16° 193° (SSW) 2,682 10.0 -24.5°
